Meerawa, Australia

6:27 PM AEST on November 25, 2017 (GMT +1000)
Meerawa

Weather History for 94287 - August, 2014

Change the Weather History Date:

Sunday, August 31, 2014

  Actual Average Record
Temperature  
Mean Temperature 70 °F -  
Max Temperature 80 °F 82 °F - ()
Min Temperature 61 °F 66 °F - ()
Cooling Degree Days 6    
Growing Degree Days 20 (Base 50)    
Moisture  
Dew Point 56 °F    
Average Humidity 61    
Maximum Humidity 88    
Minimum Humidity 21    
Precipitation  
Precipitation 0.00 in 0.04 in - ()
Sea Level Pressure  
Sea Level Pressure 30.00 in    
Wind  
Wind Speed 10 mph ()    
Max Wind Speed 21 mph    
Max Gust Speed -    
Visibility 6.7 miles    
Events      
T = Trace of Precipitation, MM = Missing Value Source: Averaged Metar Reports

Daily Weather History Graph

Daily Weather History Graph

Search for Another Location

Airport or City:

Trip Planner

Search our weather history database for the weather conditions in past years. The results will help you decide how hot, cold, wet, or windy it might be!

Date:

Astronomy

Aug. 31, 2014 Rise Set
Actual Time 6:24 AM AEST 6:10 PM AEST
Civil Twilight 6:02 AM AEST 6:32 PM AEST
Nautical Twilight 5:37 AM AEST 6:57 PM AEST
Astronomical Twilight 5:12 AM AEST 7:22 PM AEST
Moon 9:49 AM AEST (8/31) 10:47 PM AEST (8/31)
Length of Visible Light 12h 29m
Length of Day
11h 45m
Waxing Crescent, 26% of the Moon is Illuminated
Aug 31
Waxing Crescent
Sep 2
First Quarter
Sep 9
Full
Sep 16
Last Quarter
Sep 24
New

Hourly Weather History & Observations

Time (AEST) Temp. Heat Index Dew Point Humidity Pressure Visibility Wind Dir Wind Speed Gust Speed Precip Events Conditions
12:00 AM 69 °F - 58 °F 59% 30.05 in - South 8.1 mph - -   Overcast
12:00 AM 69.8 °F - 57.2 °F 64% 30.04 in 6.2 mi South 8.1 mph - N/A   Scattered Clouds
12:30 AM 68.0 °F - 57.2 °F 68% 30.04 in 6.2 mi SSE 6.9 mph - N/A   Scattered Clouds
1:00 AM 67 °F - 58 °F 64% 30.04 in - South 6.9 mph - -  
1:00 AM 68.0 °F - 57.2 °F 68% 30.01 in 6.2 mi South 6.9 mph - N/A   Scattered Clouds
1:30 AM 66.2 °F - 57.2 °F 73% 30.01 in 6.2 mi South 6.9 mph - N/A   Scattered Clouds
2:00 AM 64.4 °F - 57.2 °F 77% 30.01 in 6.2 mi SSE 8.1 mph - N/A   Scattered Clouds
2:30 AM 68.0 °F - 57.2 °F 68% 29.98 in 6.2 mi South 10.4 mph - N/A   Partly Cloudy
3:00 AM 63 °F - 58 °F 79% 29.99 in - SE 11.5 mph - -  
3:00 AM 62.6 °F - 59.0 °F 88% 29.98 in 6.2 mi SE 11.5 mph - N/A   Partly Cloudy
3:30 AM 64.4 °F - 57.2 °F 77% 29.98 in 6.2 mi SSE 5.8 mph - N/A   Unknown
4:00 AM 63 °F - 57 °F 75% 30.00 in - SE 9.2 mph - -  
4:00 AM 62.6 °F - 57.2 °F 82% 29.98 in 6.2 mi SE 9.2 mph - N/A   Partly Cloudy
4:30 AM 64.4 °F - 57.2 °F 77% 29.98 in 6.2 mi SSE 9.2 mph - N/A   Partly Cloudy
5:00 AM 62.6 °F - 57.2 °F 82% 29.98 in 6.2 mi SE 11.5 mph - N/A   Partly Cloudy
6:00 AM 62 °F - 56 °F 75% 30.01 in - SE 11.5 mph - -  
6:00 AM 62.6 °F - 55.4 °F 77% 30.01 in 6.2 mi SE 11.5 mph - N/A   Partly Cloudy
6:30 AM 62.6 °F - 55.4 °F 77% 30.01 in 6.2 mi SSE 13.8 mph - N/A   Partly Cloudy
7:00 AM 63 °F - 56 °F 71% 30.04 in - SE 12.7 mph - -  
7:00 AM 62.6 °F - 55.4 °F 77% 30.01 in 6.2 mi SE 12.7 mph - N/A   Partly Cloudy
7:30 AM 64.4 °F - 55.4 °F 73% 30.04 in 6.2 mi SE 13.8 mph - N/A   Partly Cloudy
8:00 AM 66.2 °F - 57.2 °F 73% 30.04 in 6.2 mi SE 13.8 mph - N/A   Partly Cloudy
8:30 AM 71.6 °F - 55.4 °F 57% 30.04 in 6.2 mi SE 11.5 mph - N/A   Partly Cloudy
9:00 AM 73 °F - 56 °F 46% 30.06 in 19 mi South 10.4 mph - -   Partly Cloudy
9:00 AM 73.4 °F - 57.2 °F 57% 30.04 in 6.2 mi South 10.4 mph - N/A   Partly Cloudy
9:30 AM 75.2 °F - 57.2 °F 53% 30.04 in 6.2 mi South 12.7 mph - N/A   Partly Cloudy
10:00 AM 77 °F - 58 °F 41% 30.06 in - SSE 12.7 mph - -  
10:00 AM 77.0 °F - 57.2 °F 50% 30.04 in 6.2 mi SSE 12.7 mph - N/A   Partly Cloudy
10:30 AM 77.0 °F - 59.0 °F 54% 30.04 in 6.2 mi SSE 11.5 mph - N/A   Partly Cloudy
11:00 AM 80.6 °F 80.8 °F 57.2 °F 45% 30.01 in 6.2 mi ESE 11.5 mph - N/A   Partly Cloudy
11:30 AM 78.8 °F - 55.4 °F 44% 30.01 in 6.2 mi ESE 12.7 mph - N/A   Partly Cloudy
12:00 PM 80 °F - 54 °F 30% 30.00 in - East 15.0 mph - -   Overcast
12:00 PM 80.6 °F 80.3 °F 53.6 °F 39% 30.01 in 6.2 mi East 15.0 mph - N/A   Partly Cloudy
12:30 PM 78.8 °F - 53.6 °F 42% 29.98 in 6.2 mi SE 17.3 mph - N/A   Partly Cloudy
1:00 PM 79 °F - 55 °F 33% 29.98 in - ESE 16.1 mph - -  
1:00 PM 78.8 °F - 55.4 °F 44% 29.95 in 6.2 mi ESE 16.1 mph - N/A   Partly Cloudy
1:30 PM 80.6 °F 80.3 °F 53.6 °F 39% 29.95 in 6.2 mi ESE 16.1 mph - N/A   Partly Cloudy
2:00 PM 78.8 °F - 53.6 °F 42% 29.95 in 6.2 mi ESE 18.4 mph - N/A   Partly Cloudy
2:30 PM 80.6 °F - 51.8 °F 37% 29.95 in 6.2 mi SE 18.4 mph - N/A   Partly Cloudy
3:00 PM 80 °F - 47 °F 21% 29.94 in 19 mi SE 20.7 mph - -   Partly Cloudy
3:00 PM 80.6 °F - 46.4 °F 30% 29.92 in 6.2 mi SE 20.7 mph - N/A   Partly Cloudy
3:30 PM 77.0 °F - 46.4 °F 34% 29.92 in 6.2 mi SE 19.6 mph - N/A   Partly Cloudy
4:00 PM 77 °F - 53 °F 32% 29.95 in - SE 19.6 mph - -  
4:00 PM 77.0 °F - 53.6 °F 44% 29.92 in 6.2 mi SE 19.6 mph - N/A   Partly Cloudy
4:30 PM 75.2 °F - 53.6 °F 47% 29.95 in 6.2 mi SE 19.6 mph - N/A   Partly Cloudy
5:00 PM 73.4 °F - 55.4 °F 53% 29.95 in 6.2 mi SE 18.4 mph - N/A   Partly Cloudy
5:30 PM 73.4 °F - 57.2 °F 57% 29.95 in 6.2 mi SE 17.3 mph - N/A   Partly Cloudy
6:00 PM 71 °F - 58 °F 54% 29.98 in - SE 15.0 mph - -  
6:00 PM 71.6 °F - 57.2 °F 60% 29.98 in 6.2 mi SE 15.0 mph - N/A   Partly Cloudy
6:30 PM 69.8 °F - 59.0 °F 68% 29.98 in 6.2 mi SE 16.1 mph - N/A   Partly Cloudy
7:00 PM 70 °F - 59 °F 60% 30.01 in - SSE 12.7 mph - -  
7:00 PM 69.8 °F - 59.0 °F 68% 29.98 in 6.2 mi SSE 12.7 mph - N/A   Partly Cloudy
7:30 PM 69.8 °F - 59.0 °F 68% 30.01 in 6.2 mi South 9.2 mph - N/A   Partly Cloudy
8:00 PM 68.0 °F - 59.0 °F 73% 30.01 in 6.2 mi SSE 8.1 mph - N/A   Partly Cloudy
8:30 PM 68.0 °F - 59.0 °F 73% 30.04 in 6.2 mi South 9.2 mph - N/A   Partly Cloudy
9:00 PM 68 °F - 59 °F 65% 30.04 in - South 9.2 mph - -  
9:00 PM 68.0 °F - 59.0 °F 73% 30.04 in 6.2 mi South 9.2 mph - N/A   Partly Cloudy
9:30 PM 68.0 °F - 59.0 °F 73% 30.04 in 6.2 mi South 9.2 mph - N/A   Partly Cloudy
10:00 PM 66 °F - 58 °F 69% 30.06 in - SSE 8.1 mph - -  
10:00 PM 66.2 °F - 59.0 °F 78% 30.04 in 6.2 mi SSE 8.1 mph - N/A   Partly Cloudy
10:30 PM 66.2 °F - 59.0 °F 78% 30.04 in 6.2 mi ESE 6.9 mph - N/A   Partly Cloudy
11:00 PM 64.4 °F - 59.0 °F 83% 30.04 in 6.2 mi SE 6.9 mph - N/A   Partly Cloudy
11:30 PM 64.4 °F - 59.0 °F 83% 30.04 in 6.2 mi SSE 6.9 mph - N/A   Partly Cloudy